User: anonymous   Login
Location: Fort Wayne
(41.1310°N, 85.1290°W)
Time: 09:57:20
(UTC-04:00)
Language:

Cosmos 2219 Rocket - Orbit

View from above orbital plane
View from above orbital plane
View from above satellite
View from above satellite

Ground track
Ground track

The orbit data is extracted from the following two-line orbital elements,

1 22220U 92076B   15241.54458394  .00000074  00000-0  61248-4 0  9993
2 22220 071.0018 003.5022 0013630 203.9737 211.1542 14.16373475177656
Epoch (UTC): 29 August 2015 13:04:12
Eccentricity: 0.0013630
inclination: 71.0018°
perigee height: 828 km
apogee height: 847 km
right ascension of ascending node: 3.5022°
argument of perigee: 203.9737°
revolutions per day: 14.16373475
mean anomaly at epoch: 211.1542°
orbit number at epoch: 17765

The dashed part of the orbit path shows where the satellite is in the earth's shadow,  

DLR